Find Starlink 5261

NORAD ID: 55276 Int'l Des: 2023-010 Owner: SPXS Country: US Constellation: starlink operational
LEOCIRCULAR

リアルタイム位置

3D地球を読み込み中...

Starlink 5261について

説明を読み込み中...

次回通過

Passes for default location (London). Set your location on the main map for personalized predictions.

高度履歴

Loading altitude history...

軌道要素

1 55276U 23010H 26127.28645475 -.00000399 00000-0 -25685-4 0 9993
2 55276 70.0006 236.8213 0003079 266.6040 93.4767 14.98329417182047
Epoch: May 7, 2026 • Age: 10 hours

現在のステータス

高度 574.6 km
速度 7.58 km/s
衛星直下点 19.63°N, 75.18°W
打ち上げ日 Jan 19, 2023
運用期間 3.2 years
タイプ internet

技術仕様

分類 Payload
質量 305.00 kg
乾燥質量 290.00 kg
総質量 305.00 kg
長さ 0.20 m
直径 2.80 m
スパン 9.00 m
形状 Box + pan
製造者 SPXS
バスタイプ Starlink
フェーズステータス In Orbit
所有者/国 SPXS/US

Most Searched